H1 CPF 2 NER 2025 8 6 9 218 01 glonass140 H2 1903001 9140 44299 2025 8 6 0 0 0 2025 8 9 23 45 0 900 1 1 0 0 0 1 H9 10 0 60893 0.00000 0 -8047381.635 8978296.354 -22449533.753 10 0 60893 900.00000 0 -9145785.628 6396892.717 -22906924.332 10 0 60893 1800.00000 0 -10440508.126 3875515.366 -22918065.638 10 0 60893 2700.00000 0 -11899880.991 1476217.714 -22482708.813 10 0 60893 3600.00000 0 -13482022.565 -745628.768 -21609325.872 10 0 60893 4500.00000 0 -15136493.986 -2743417.237 -20314944.467 10 0 60893 5400.00000 0 -16806335.346 -4481011.356 -18624813.222 10 0 60893 6300.00000 0 -18430395.990 -5934003.614 -16571904.264 10 0 60893 7200.00000 0 -19945860.549 -7090474.317 -14196262.936 10 0 60893 8100.00000 0 -21290863.855 -7951220.850 -11544217.818 10 0 60893 9000.00000 0 -22407084.065 -8529449.309 -8667467.148 10 0 60893 9900.00000 0 -23242204.183 -8849943.546 -5622060.301 10 0 60893 10800.00000 0 -23752137.887 -8947748.879 -2467295.199 10 0 60893 11700.00000 0 -23902925.705 -8866428.316 735445.835 10 0 60893 12600.00000 0 -23672221.772 -8655967.125 3923898.002 10 0 60893 13500.00000 0 -23050309.010 -8370416.279 7036129.455 10 0 60893 14400.00000 0 -22040600.694 -8065375.961 10011745.903 10 0 60893 15300.00000 0 -20659608.229 -7795426.662 12793060.615 10 0 60893 16200.00000 0 -18936377.432 -7611616.984 15326207.163 10 0 60893 17100.00000 0 -16911417.802 -7559114.340 17562173.825 10 0 60893 18000.00000 0 -14635170.271 -7675117.315 19457740.423 10 0 60893 18900.00000 0 -12166077.707 -7987117.009 20976300.721 10 0 60893 19800.00000 0 -9568338.441 -8511579.710 22088555.882 10 0 60893 20700.00000 0 -6909435.729 -9253105.511 22773067.099 10 0 60893 21600.00000 0 -4257544.684 -10204097.621 23016658.162 10 0 60893 22500.00000 0 -1678922.769 -11344956.018 22814661.434 10 0 60893 23400.00000 0 764609.663 -12644787.581 22171003.319 10 0 60893 24300.00000 0 3017996.349 -14062603.650 21098128.058 10 0 60893 25200.00000 0 5034985.050 -15548956.082 19616761.231 10 0 60893 26100.00000 0 6779797.591 -17047944.797 17755517.053 10 0 60893 27000.00000 0 8228362.182 -18499514.472 15550356.117 10 0 60893 27900.00000 0 9369057.907 -19841945.891 13043902.828 10 0 60893 28800.00000 0 10202941.139 -21014439.051 10284634.381 10 0 60893 29700.00000 0 10743444.810 -21959680.856 7325955.508 10 0 60893 30600.00000 0 11015563.234 -22626290.285 4225175.634 10 0 60893 31500.00000 0 11054556.490 -22971038.436 1042407.185 10 0 60893 32400.00000 0 10904228.617 -22960749.648 -2160594.337 10 0 60893 33300.00000 0 10614851.879 -22573802.711 -5321626.436 10 0 60893 34200.00000 0 10240824.542 -21801167.550 -8379248.630 10 0 60893 35100.00000 0 9838161.227 -20646931.980 -11273980.596 10 0 60893 36000.00000 0 9461922.280 -19128294.431 -13949465.635 10 0 60893 36900.00000 0 9163691.619 -17275021.001 -16353576.012 10 0 60893 37800.00000 0 8989210.694 -15128387.850 -18439437.856 10 0 60893 38700.00000 0 8976269.873 -12739651.722 -20166354.770 10 0 60893 39600.00000 0 9152947.784 -10168111.535 -21500611.329 10 0 60893 40500.00000 0 9536274.489 -7478841.287 -22416140.047 10 0 60893 41400.00000 0 10131376.373 -4740188.566 -22895038.195 10 0 60893 42300.00000 0 10931140.192 -2021143.005 -22927923.813 10 0 60893 43200.00000 0 11916411.556 611315.498 -22514123.582 10 0 60893 44100.00000 0 13056720.374 3094778.041 -21661688.555 10 0 60893 45000.00000 0 14311503.210 5373770.469 -20387237.245 10 0 60893 45900.00000 0 15631771.272 7401821.063 -18715629.071 10 0 60893 46800.00000 0 16962153.625 9143146.124 -16679474.592 10 0 60893 47700.00000 0 18243229.096 10573883.646 -14318492.365 10 0 60893 48600.00000 0 19414047.963 11682824.529 -11678725.424 10 0 60893 49500.00000 0 20414736.334 12471612.179 -8811633.310 10 0 60893 50400.00000 0 21189072.584 12954403.961 -5773078.221 10 0 60893 51300.00000 0 21686926.513 13157010.922 -2622226.047 10 0 60893 52200.00000 0 21866457.829 13115554.323 579615.258 10 0 60893 53100.00000 0 21695981.001 12874697.933 3770196.271 10 0 60893 54000.00000 0 21155417.984 12485532.872 6887541.366 10 0 60893 54900.00000 0 20237277.933 12003206.120 9871154.365 10 0 60893 55800.00000 0 18947123.307 11484394.272 12663190.735 10 0 60893 56700.00000 0 17303503.447 10984730.058 15209573.621 10 0 60893 57600.00000 0 15337359.123 10556290.548 17461032.553 10 0 60893 58500.00000 0 13090923.511 10245252.757 19374045.479 10 0 60893 59400.00000 0 10616165.807 10089814.751 20911667.135 10 0 60893 60300.00000 0 7972842.244 10118468.830 22044229.121 10 0 60893 61200.00000 0 5226235.089 10348698.317 22749899.664 10 0 60893 62100.00000 0 2444672.586 10786151.712 23015093.684 10 0 60893 63000.00000 0 -303068.709 11424328.135 22834726.517 10 0 60893 63900.00000 0 -2950373.208 12244786.922 22212307.247 10 0 60893 64800.00000 0 -5435300.993 13217872.714 21159870.349 10 0 60893 65700.00000 0 -7702905.765 14303926.290 19697746.904 10 0 60893 66600.00000 0 -9707261.752 15454931.435 17854179.348 10 0 60893 67500.00000 0 -11413117.120 16616530.199 15664786.285 10 0 60893 68400.00000 0 -12797106.497 17730323.521 13171886.490 10 0 60893 69300.00000 0 -13848472.973 18736362.114 10423693.789 10 0 60893 70200.00000 0 -14569270.038 19575724.252 7473396.988 10 0 60893 71100.00000 0 -14974035.109 20193072.913 4378141.318 10 0 60893 72000.00000 0 -15088948.240 20539085.030 1197930.069 10 0 60893 72900.00000 0 -14950511.023 20572650.345 -2005533.056 10 0 60893 73800.00000 0 -14603800.923 20262746.418 -5170038.840 10 0 60893 74700.00000 0 -14100374.335 19589909.466 -8234081.524 10 0 60893 75600.00000 0 -13495906.728 18547237.341 -11138058.056 10 0 60893 76500.00000 0 -12847669.666 17140880.362 -13825433.797 10 0 60893 77400.00000 0 -12211951.737 15389997.245 -16243851.217 10 0 60893 78300.00000 0 -11641533.072 13326175.863 -18346159.176 10 0 60893 79200.00000 0 -11183321.098 10992341.239 -20091341.894 10 0 60893 80100.00000 0 -10876248.537 8441194.933 -21445328.665 10 0 60893 81000.00000 0 -10749523.592 5733249.908 -22381667.769 10 0 60893 81900.00000 0 -10821307.383 2934542.148 -22882050.827 10 0 60893 82800.00000 0 -11097875.524 114114.126 -22936676.788 10 0 60893 83700.00000 0 -11573300.131 -2658625.068 -22544448.043 10 0 60893 84600.00000 0 -12229666.321 -5316552.851 -21712994.529 10 0 60893 85500.00000 0 -13037814.460 -7797388.744 -20458525.127 10 0 60894 0.00000 0 -13958576.836 -10046045.633 -18805509.364 10 0 60894 900.00000 0 -14944456.837 -12016679.830 -16786194.752 10 0 60894 1800.00000 0 -15941678.018 -13674351.726 -14439971.708 10 0 60894 2700.00000 0 -16892517.444 -14996232.343 -11812595.981 10 0 60894 3600.00000 0 -17737822.679 -15972303.348 -8955286.473 10 0 60894 4500.00000 0 -18419605.616 -16605523.976 -5923716.107 10 0 60894 5400.00000 0 -18883602.609 -16911459.535 -2776916.520 10 0 60894 6300.00000 0 -19081692.005 -16917389.301 423881.051 10 0 60894 7200.00000 0 -18974066.446 -16660933.633 3616444.999 10 0 60894 8100.00000 0 -18531068.020 -16188260.404 6738758.470 10 0 60894 9000.00000 0 -17734608.921 -15551948.393 9730226.018 10 0 60894 9900.00000 0 -16579118.058 -14808599.408 12532847.972 10 0 60894 10800.00000 0 -15071974.281 -14016300.997 15092339.689 10 0 60894 11700.00000 0 -13233408.538 -13232047.270 17359174.471 10 0 60894 12600.00000 0 -11095879.513 -12509226.497 19289530.721 10 0 60894 13500.00000 0 -8702949.069 -11895280.695 20846126.196 10 0 60894 14400.00000 0 -6107704.333 -11429634.661 21998924.643 10 0 60894 15300.00000 0 -3370791.621 -11141980.243 22725702.640 10 0 60894 16200.00000 0 -558143.037 -11050986.580 23012467.157 10 0 60894 17100.00000 0 2261511.273 -11163489.245 22853717.020 10 0 60894 18000.00000 0 5019243.700 -11474191.382 22252544.134 10 0 60894 18900.00000 0 7648536.719 -11965888.916 21220572.994 10 0 60894 19800.00000 0 10087791.387 -12610210.407 19777739.642 10 0 60894 20700.00000 0 12282634.679 -13368841.011 17951913.884 10 0 60894 21600.00000 0 14187931.683 -14195180.130 15778371.177 10 0 60894 22500.00000 0 15769420.462 -15036364.328 13299123.175 10 0 60894 23400.00000 0 17004902.536 -15835571.831 10562118.531 10 0 60894 24300.00000 0 17884939.955 -16534512.890 7620327.988 10 0 60894 25200.00000 0 18413030.059 -17076002.137 4530730.139 10 0 60894 26100.00000 0 18605250.438 -17406505.103 1353216.448 10 0 60894 27000.00000 0 18489388.665 -17478551.527 -1850564.051 10 0 60894 27900.00000 0 18103592.902 -17252913.153 -5018398.387 10 0 60894 28800.00000 0 17494599.710 -16700452.978 -8088718.487 10 0 60894 29700.00000 0 16715613.425 -15803566.394 -11001801.466 10 0 60894 30600.00000 0 15823926.428 -14557151.439 -13700937.517 10 0 60894 31500.00000 0 14878380.858 -12969065.118 -16133541.896 10 0 60894 32400.00000 0 13936779.347 -11060044.271 -18252188.565 10 0 60894 33300.00000 0 13053354.684 -8863092.142 -20015544.479 10 0 60894 34200.00000 0 12276406.071 -6422354.407 -21389185.465 10 0 60894 35100.00000 0 11646202.595 -3791530.123 -22346277.046 10 0 60894 36000.00000 0 11193243.298 -1031882.782 -22868106.294 10 0 60894 36900.00000 0 10936948.068 1790066.223 -22944453.776 10 0 60894 37800.00000 0 10884835.230 4605065.936 -22573797.909 10 0 60894 38700.00000 0 11032220.960 7343780.702 -21763347.438 10 0 60894 39600.00000 0 11362453.366 9939441.195 -20528901.153 10 0 60894 40500.00000 0 11847671.234 12330390.930 -18894537.550 10 0 60894 41400.00000 0 12450055.008 14462421.979 -16892140.513 10 0 60894 42300.00000 0 13123516.450 16290802.416 -14560770.540 10 0 60894 43200.00000 0 13815754.701 17781911.158 -11945894.223 10 0 60894 44100.00000 0 14470590.741 18914412.564 -9098487.605 10 0 60894 45000.00000 0 15030480.400 19679922.691 -6074031.791 10 0 60894 45900.00000 0 15439098.495 20083140.827 -2931421.334 10 0 60894 46800.00000 0 15643883.829 20141442.680 268192.278 10 0 60894 47700.00000 0 15598436.610 19883954.396 3462598.416 10 0 60894 48600.00000 0 15264666.511 19350148.594 6589742.174 10 0 60894 49500.00000 0 14614600.386 18588023.618 9588931.951 10 0 60894 50400.00000 0 13631773.485 17651944.462 12402015.886 10 0 60894 51300.00000 0 12312145.828 16600237.740 14974504.275 10 0 60894 52200.00000 0 10664505.550 15492642.722 17256616.662 10 0 60894 53100.00000 0 8710342.672 14387725.975 19204234.069 10 0 60894 54000.00000 0 6483198.758 13340367.919 20779739.113 10 0 60894 54900.00000 0 4027519.545 12399425.997 21952729.165 10 0 60894 55800.00000 0 1397057.962 11605671.276 22700590.242 10 0 60894 56700.00000 0 -1347106.858 10990083.507 23008922.014 10 0 60894 57600.00000 0 -4138853.538 10572574.572 22871806.983 10 0 60894 58500.00000 0 -6909512.199 10361192.455 22291919.557 10 0 60894 59400.00000 0 -9590466.441 10351838.037 21280473.412 10 0 60894 60300.00000 0 -12115757.713 10528505.972 19857008.200 10 0 60894 61200.00000 0 -14424586.001 10864039.461 18049019.264 10 0 60894 62100.00000 0 -16463604.875 11321367.596 15891436.655 10 0 60894 63000.00000 0 -18188917.048 11855174.080 13425962.327 10 0 60894 63900.00000 0 -19567688.483 12413928.187 10700276.957 10 0 60894 64800.00000 0 -20579314.458 12942193.526 7767130.312 10 0 60894 65700.00000 0 -21216089.107 13383118.334 4683331.429 10 0 60894 66600.00000 0 -21483350.277 13681002.928 1508657.076 10 0 60894 67500.00000 0 -21399093.166 13783836.189 -1695301.130 10 0 60894 68400.00000 0 -20993068.369 13645693.685 -4866329.086 10 0 60894 69300.00000 0 -20305401.602 13228895.301 -7942798.882 10 0 60894 70200.00000 0 -19384792.610 12505829.869 -10864870.112 10 0 60894 71100.00000 0 -18286368.781 11460367.962 -13575659.916 10 0 60894 72000.00000 0 -17069283.740 10088801.129 -16022358.241 10 0 60894 72900.00000 0 -15794162.321 8400265.647 -18157265.786 10 0 60894 73800.00000 0 -14520499.947 6416630.640 -19938733.572 10 0 60894 74700.00000 0 -13304126.631 4171853.030 -21331984.967 10 0 60894 75600.00000 0 -12194843.112 1710824.430 -22309803.413 10 0 60894 76500.00000 0 -11234329.444 -912243.349 -22853071.770 10 0 60894 77400.00000 0 -10454414.755 -3635827.834 -22951152.228 10 0 60894 78300.00000 0 -9875781.558 -6393417.299 -22602098.916 10 0 60894 79200.00000 0 -9507159.433 -9116047.559 -21812698.749 10 0 60894 80100.00000 0 -9345042.075 -11734948.360 -20598339.507 10 0 60894 81000.00000 0 -9373939.285 -14184188.868 -18982707.609 10 0 60894 81900.00000 0 -9567152.683 -16403211.672 -16997321.566 10 0 60894 82800.00000 0 -9888041.462 -18339149.336 -14680910.435 10 0 60894 83700.00000 0 -10291723.613 -19948826.756 -12078649.843 10 0 60894 84600.00000 0 -10727139.356 -21200365.917 -9241271.071 10 0 60894 85500.00000 0 -11139388.138 -22074326.521 -6224061.431 10 0 60895 0.00000 0 -11472238.883 -22564335.770 -3085776.664 10 0 60895 900.00000 0 -11670706.155 -22677182.564 112514.101 10 0 60895 1800.00000 0 -11683581.699 -22432373.377 3308623.036 10 0 60895 2700.00000 0 -11465814.100 -21861171.337 6440459.339 10 0 60895 3600.00000 0 -10980634.993 -21005160.212 9447237.474 10 0 60895 4500.00000 0 -10201342.059 -19914395.879 12270655.658 10 0 60895 5400.00000 0 -9112663.683 -18645224.523 14856021.404 10 0 60895 6300.00000 0 -7711648.056 -17257860.319 17153302.720 10 0 60895 7200.00000 0 -6008039.651 -15813824.889 19118085.338 10 0 60895 8100.00000 0 -4024127.526 -14373355.868 20712418.626 10 0 60895 9000.00000 0 -1794071.723 -12992892.581 21905535.195 10 0 60895 9900.00000 0 637264.375 -11722742.963 22674431.800 10 0 60895 10800.00000 0 3215927.869 -10605027.886 23004301.763 10 0 60895 11700.00000 0 5880870.306 -9671987.150 22888811.857 10 0 60895 12600.00000 0 8566240.464 -8944716.346 22330219.230 10 0 60895 13500.00000 0 11203882.559 -8432385.909 21339326.650 10 0 60895 14400.00000 0 13725938.202 -8131973.887 19935276.965 10 0 60895 15300.00000 0 16067446.083 -8028522.950 18145190.329 10 0 60895 16200.00000 0 18168833.270 -8095910.639 16003650.363 10 0 60895 17100.00000 0 19978196.181 -8298100.751 13552047.972 10 0 60895 18000.00000 0 21453277.429 -8590823.908 10837794.183 10 0 60895 18900.00000 0 22563056.899 -8923617.362 7913415.770 10 0 60895 19800.00000 0 23288890.860 -9242138.933 4835549.867 10 0 60895 20700.00000 0 23625151.315 -9490658.161 1663855.917 10 0 60895 21600.00000 0 23579338.246 -9614619.865 -1540134.753 10 0 60895 22500.00000 0 23171659.340 -9563171.712 -4714209.901 10 0 60895 23400.00000 0 22434093.924 -9291548.402 -7796684.818 10 0 60895 24300.00000 0 21408979.701 -8763210.598 -10727604.539 10 0 60895 25200.00000 0 20147181.013 -7951646.623 -13449915.973 10 0 60895 26100.00000 0 18705915.297 -6841758.895 -15910586.361 10 0 60895 27000.00000 0 17146329.034 -5430774.355 -18061645.501 10 0 60895 27900.00000 0 15530925.288 -3728638.159 -19861130.569 10 0 60895 28800.00000 0 13920951.410 -1757871.756 -21273914.282 10 0 60895 29700.00000 0 12373857.268 447100.860 -22272399.488 10 0 60895 30600.00000 0 10940931.432 2841132.353 -22837065.999 10 0 60895 31500.00000 0 9665215.212 5369988.782 -22956858.429 10 0 60895 32400.00000 0 8579782.641 7972376.482 -22629407.045 10 0 60895 33300.00000 0 7706458.862 10582275.058 -21861076.984 10 0 60895 34200.00000 0 7055030.746 13131479.262 -20666844.654 10 0 60895 35100.00000 0 6622982.495 15552243.604 -19070003.659 10 0 60895 36000.00000 0 6395766.626 17779919.021 -17101706.005 10 0 60895 36900.00000 0 6347597.819 19755471.126 -14800347.790 10 0 60895 37800.00000 0 6442734.782 21427774.537 -12210811.776 10 0 60895 38700.00000 0 6637194.444 22755587.280 -9383582.211 10 0 60895 39600.00000 0 6880824.360 23709122.811 -6373750.006 10 0 60895 40500.00000 0 7119643.968 24271154.433 -3239928.619 10 0 60895 41400.00000 0 7298354.058 24437606.807 -43102.817 10 0 60895 42300.00000 0 7362906.847 24217611.118 3154566.187 10 0 60895 43200.00000 0 7263026.796 23633023.272 6290955.000 10 0 60895 44100.00000 0 6954574.789 22717427.154 9305187.392 10 0 60895 45000.00000 0 6401655.351 21514666.649 12138814.750 10 0 60895 45900.00000 0 5578377.849 20076969.646 14736944.668 10 0 60895 46800.00000 0 4470197.600 18462744.000 17049296.210 10 0 60895 47700.00000 0 3074780.725 16734138.595 19031162.100 10 0 60895 48600.00000 0 1402356.683 14954471.882 20644260.378 10 0 60895 49500.00000 0 -524456.196 13185635.027 21857460.445 10 0 60895 50400.00000 0 -2671345.049 11485577.281 22647370.918 10 0 60895 51300.00000 0 -4993488.255 9905977.173 22998779.441 10 0 60895 52200.00000 0 -7437184.189 8490195.003 22904937.234 10 0 60895 53100.00000 0 -9941856.524 7271590.244 22367683.835 10 0 60895 54000.00000 0 -12442354.359 6272272.290 21397410.201 10 0 60895 54900.00000 0 -14871453.561 5502335.157 20012860.921 10 0 60895 55800.00000 0 -17162457.264 4959606.926 18240778.990 10 0 60895 56700.00000 0 -19251789.386 4629923.690 16115399.148 10 0 60895 57600.00000 0 -21081474.899 4487916.222 13677798.421 10 0 60895 58500.00000 0 -22601404.821 4498276.517 10975115.071 10 0 60895 59400.00000 0 -23771292.289 4617451.396 8059649.610 10 0 60895 60300.00000 0 -24562238.360 4795692.505 4987863.955 10 0 60895 61200.00000 0 -24957841.840 4979376.847 1819296.952 10 0 60895 62100.00000 0 -24954806.087 5113500.347 -1384583.492 10 0 60895 63000.00000 0 -24563016.422 5144239.148 -4561569.961 10 0 60895 63900.00000 0 -23805083.835 5021470.042 -7649923.698 10 0 60895 64800.00000 0 -22715373.044 4701142.622 -10589577.719 10 0 60895 65700.00000 0 -21338554.748 4147401.549 -13323310.987 10 0 60895 66600.00000 0 -19727742.174 3334367.536 -15797870.037 10 0 60895 67500.00000 0 -17942289.704 2247499.786 -17965015.429 10 0 60895 68400.00000 0 -16045345.877 884480.163 -19782471.768 10 0 60895 69300.00000 0 -14101263.625 -744420.457 -21214761.949 10 0 60895 70200.00000 0 -12172976.728 -2616511.290 -22233908.586 10 0 60895 71100.00000 0 -10319452.994 -4697381.138 -22819988.330 10 0 60895 72000.00000 0 -8593331.438 -6942100.596 -22961527.654 10 0 60895 72900.00000 0 -7038842.921 -9296877.930 -22655731.975 10 0 60895 73800.00000 0 -5690101.606 -11701100.189 -21908543.293 10 0 60895 74700.00000 0 -4569838.868 -14089674.620 -20734524.990 10 0 60895 75600.00000 0 -3688632.343 -16395572.544 -19156575.943 10 0 60895 76500.00000 0 -3044661.735 -18552469.157 -17205479.565 10 0 60895 77400.00000 0 -2624000.507 -20497368.417 -14919296.790 10 0 60895 78300.00000 0 -2401429.692 -22173102.773 -12342615.260 10 0 60895 79200.00000 0 -2341737.769 -23530602.737 -9525669.939 10 0 60895 80100.00000 0 -2401449.860 -24530841.060 -6523353.132 10 0 60895 81000.00000 0 -2530911.201 -25146370.183 -3394134.177 10 0 60895 81900.00000 0 -2676634.912 -25362389.019 -198910.868 10 0 60895 82800.00000 0 -2783813.017 -25177295.215 3000183.883 10 0 60895 83700.00000 0 -2798883.044 -24602700.993 6140995.997 10 0 60895 84600.00000 0 -2672040.562 -23662913.392 9162560.414 10 0 60895 85500.00000 0 -2359590.757 -22393902.354 12006283.506 10 0 60896 0.00000 0 -1826039.488 -20841801.610 14617074.498 10 0 60896 900.00000 0 -1045835.327 -19061005.611 16944405.653 10 0 60896 1800.00000 0 -4690.217 -17111945.227 18943277.973 10 0 60896 2700.00000 0 1299577.384 -15058632.841 20575079.517 10 0 60896 3600.00000 0 2856711.344 -12966081.212 21808317.572 10 0 60896 4500.00000 0 4644212.749 -10897702.273 22619213.445 10 0 60896 5400.00000 0 6628052.931 -8912793.155 22992149.629 10 0 60896 6300.00000 0 8763875.572 -7064212.474 22919962.016 10 0 60896 7200.00000 0 10998638.846 -5396341.796 22404072.471 10 0 60896 8100.00000 0 13272630.685 -3943415.222 21454459.806 10 0 60896 9000.00000 0 15521775.079 -2728284.826 20089469.767 10 0 60896 9900.00000 0 17680135.278 -1761671.940 18335467.363 10 0 60896 10800.00000 0 19682511.621 -1041934.338 16226337.403 10 0 60896 11700.00000 0 21467027.495 -555358.361 13802841.750 10 0 60896 12600.00000 0 22977596.957 -276963.442 11111844.358 10 0 60896 13500.00000 0 24166171.953 -171785.380 8205417.681 10 0 60896 14400.00000 0 24994675.652 -196584.730 5139846.339 10 0 60896 15300.00000 0 25436540.837 -301908.818 1974546.264 10 0 60896 16200.00000 0 25477788.318 -434420.815 -1229080.606 10 0 60896 17100.00000 0 25117599.152 -539397.683 -4408834.373 10 0 60896 18000.00000 0 24368355.375 -563291.282 -7502924.987 10 0 60896 18900.00000 0 23255146.216 -456243.772 -10451176.169 10 0 60896 19800.00000 0 21814759.160 -174449.945 -13196201.537 10 0 60896 20700.00000 0 20094197.128 317734.850 -15684529.347 10 0 60896 21600.00000 0 18148783.105 1046032.015 -17867653.120 10 0 60896 22500.00000 0 16039931.191 2024898.716 -19702986.861 10 0 60896 23400.00000 0 13832677.304 3256667.317 -21154705.364 10 0 60896 24300.00000 0 11593073.052 4731203.657 -22194452.497 10 0 60896 25200.00000 0 9385552.144 6426100.563 -22801902.967 10 0 60896 26100.00000 0 7270379.977 8307400.255 -22965166.034 10 0 60896 27000.00000 0 5301293.445 10330816.757 -22681022.875 10 0 60896 27900.00000 0 3523429.956 12443408.097 -21954992.596 10 0 60896 28800.00000 0 1971632.352 14585628.827 -20801225.402 10 0 60896 29700.00000 0 669200.386 16693677.098 -19242224.878 10 0 60896 30600.00000 0 -372859.598 18702037.855 -17308404.855 10 0 60896 31500.00000 0 -1156056.391 20546115.203 -15037489.688 10 0 60896 32400.00000 0 -1694099.179 22164843.082 -12473770.080 10 0 60896 33300.00000 0 -2012061.399 23503164.286 -9667229.511 10 0 60896 34200.00000 0 -2145060.417 24514273.329 -6672559.143 10 0 60896 35100.00000 0 -2136510.916 25161528.874 -3548081.356 10 0 60896 36000.00000 0 -2036027.886 25419955.520 -354603.927 10 0 60896 36900.00000 0 -1897069.872 25277272.351 2845771.734 10 0 60896 37800.00000 0 -1774423.898 24734405.888 5990864.114 10 0 60896 38700.00000 0 -1721639.785 23805467.038 9019622.540 10 0 60896 39600.00000 0 -1788523.326 22517194.319 11873311.487 10 0 60896 40500.00000 0 -2018794.691 20907888.045 14496645.182 10 0 60896 41400.00000 0 -2448011.042 19025881.329 16838850.843 10 0 60896 42300.00000 0 -3101840.650 16927612.814 18854640.659 10 0 60896 43200.00000 0 -3994760.782 14675382.118 20505074.811 10 0 60896 44100.00000 0 -5129233.603 12334881.636 21758300.217 10 0 60896 45000.00000 0 -6495394.348 9972606.972 22590152.227 10 0 60896 45900.00000 0 -8071264.752 7653252.681 22984609.091 10 0 60896 46800.00000 0 -9823483.161 5437200.063 22934091.797 10 0 60896 47700.00000 0 -11708521.550 3378199.612 22439604.433 10 0 60896 48600.00000 0 -13674339.848 1521342.449 21510712.995 10 0 60896 49500.00000 0 -15662410.105 -98596.930 20165363.151 10 0 60896 50400.00000 0 -17610027.859 -1458379.353 18429540.119 10 0 60896 51300.00000 0 -19452816.155 -2547031.843 16336776.448 10 0 60896 52200.00000 0 -21127319.494 -3366061.222 13927516.046 10 0 60896 53100.00000 0 -22573580.874 -3929142.136 11248345.413 10 0 60896 54000.00000 0 -23737595.271 -4261292.807 8351105.528 10 0 60896 54900.00000 0 -24573537.500 -4397573.008 5291900.163 10 0 60896 55800.00000 0 -25045671.091 -4381358.726 2130018.740 10 0 60896 56700.00000 0 -25129857.634 -4262265.859 -1073206.306 10 0 60896 57600.00000 0 -24814602.239 -4093810.295 -4255586.003 10 0 60896 58500.00000 0 -24101589.832 -3930903.193 -7355282.245 10 0 60896 59400.00000 0 -23005688.213 -3827287.673 -10312012.460 10 0 60896 60300.00000 0 -21554416.098 -3833026.019 -13068227.668 10 0 60896 61200.00000 0 -19786896.980 -3992144.737 -15570240.263 10 0 60896 62100.00000 0 -17752341.414 -4340538.510 -17769278.758 10 0 60896 63000.00000 0 -15508120.383 -4904223.332 -19622448.113 10 0 60896 63900.00000 0 -13117509.831 -5698014.470 -21093576.043 10 0 60896 64800.00000 0 -10647200.491 -6724686.992 -22153928.085 10 0 60896 65700.00000 0 -8164677.118 -7974656.137 -22782776.801 10 0 60896 66600.00000 0 -5735576.874 -9426192.691 -22967813.430 10 0 60896 67500.00000 0 -3421137.497 -11046165.792 -22705393.543 10 0 60896 68400.00000 0 -1275842.049 -12791283.049 -22000611.515 10 0 60896 69300.00000 0 654641.218 -14609776.617 -20867202.142 10 0 60896 70200.00000 0 2335137.984 -16443464.767 -19327271.199 10 0 60896 71100.00000 0 3742196.212 -18230102.371 -17410860.208 10 0 60896 72000.00000 0 4864813.203 -19905921.255 -15155354.112 10 0 60896 72900.00000 0 5704632.175 -21408253.194 -12604743.788 10 0 60896 73800.00000 0 6275601.805 -22678124.682 -9808758.362 10 0 60896 74700.00000 0 6603115.064 -23662713.792 -6821885.057 10 0 60896 75600.00000 0 6722665.842 -24317565.344 -3702296.622 10 0 60896 76500.00000 0 6678082.315 -24608471.009 -510708.283 10 0 60896 77400.00000 0 6519413.871 -24512935.333 2690812.399 10 0 60896 78300.00000 0 6300562.893 -24021166.501 5840058.630 10 0 60896 79200.00000 0 6076763.187 -23136550.904 8875896.076 10 0 60896 80100.00000 0 5902012.832 -21875592.586 11739449.039 10 0 60896 81000.00000 0 5826570.683 -20267321.179 14375238.029 10 0 60896 81900.00000 0 5894622.476 -18352194.170 16732246.941 10 0 60896 82800.00000 0 6142214.778 -16180540.302 18764899.885 10 0 60896 83700.00000 0 6595543.358 -13810609.620 20433929.847 10 0 60896 84600.00000 0 7269667.310 -11306311.538 21707123.773 10 0 60896 85500.00000 0 8167702.336 -8734734.675 22559931.128 99